Olympia, WA

2:30 PM PDT on April 28, 2017 (GMT -0700)
Olympia

Weather History for KOLM - August, 2014

Change the Weather History Date:

Sunday, August 10, 2014

  Actual Average Record
Temperature  
Mean Temperature 68 °F 65 °F  
Max Temperature 89 °F 78 °F 102 °F (1981)
Min Temperature 46 °F 51 °F 40 °F (1954)
Degree Days  
Heating Degree Days 0 2  
Month to date heating degree days 2 20  
Since 1 June heating degree days 190 288  
Since 1 July heating degree days 35 100  
Cooling Degree Days 3 2  
Month to date cooling degree days 32 20  
Year to date cooling degree days 130 77  
Since 1 June cooling degree days 129 74  
Growing Degree Days 18 (Base 50)    
Moisture  
Dew Point 50 °F    
Average Humidity 61    
Maximum Humidity 93    
Minimum Humidity 28    
Precipitation  
Precipitation 0.00 in 0.02 in 0.09 in (1957)
Month to date precipitation 0.00 0.17  
Year to date precipitation 30.96 26.83  
Sea Level Pressure  
Sea Level Pressure 30.06 in    
Wind  
Wind Speed 6 mph (NE)    
Max Wind Speed 16 mph    
Max Gust Speed 23 mph    
Visibility 10 miles    
Events      
T = Trace of Precipitation, MM = Missing Value Source: NWS Daily Summary

Daily Weather History Graph

Daily Weather History Graph

Search for Another Location

Airport or City:

Trip Planner

Search our weather history database for the weather conditions in past years. The results will help you decide how hot, cold, wet, or windy it might be!

Date:

Astronomy

Aug. 10, 2014 Rise Set
Actual Time 6:02 AM PDT 8:30 PM PDT
Civil Twilight 5:28 AM PDT 9:04 PM PDT
Nautical Twilight 4:45 AM PDT 9:46 PM PDT
Astronomical Twilight 3:56 AM PDT 10:35 PM PDT
Moon 8:14 PM PDT (8/10) 6:05 AM PDT (8/10)
Length of Visible Light 15h 35m
Length of Day
14h 27m
Full, 100% of the Moon is Illuminated
Aug 10
Full
Aug 17
Last Quarter
Aug 25
New
Sep 2
First Quarter
Sep 8
Full

Hourly Weather History & Observations

Time (PDT) Temp. Dew Point Humidity Pressure Visibility Wind Dir Wind Speed Gust Speed Precip Events Conditions
12:54 AM 57.9 °F 48.0 °F 70% 30.12 in 10.0 mi Calm Calm - N/A   Clear
1:54 AM 53.6 °F 48.2 °F 82% 30.12 in 10.0 mi Calm Calm - N/A   Clear
2:54 AM 52.0 °F 46.9 °F 83% 30.12 in 10.0 mi Calm Calm - N/A   Clear
3:54 AM 51.1 °F 46.9 °F 86% 30.12 in 10.0 mi Calm Calm - N/A   Clear
4:54 AM 48.2 °F 46.4 °F 93% 30.11 in 10.0 mi Calm Calm - N/A   Clear
5:54 AM 46.0 °F 45.0 °F 96% 30.11 in 10.0 mi Calm Calm - N/A   Clear
6:54 AM 48.9 °F 46.0 °F 90% 30.13 in 10.0 mi Calm Calm - N/A   Clear
7:54 AM 61.0 °F 52.0 °F 72% 30.13 in 10.0 mi North 6.9 mph - N/A   Clear
8:54 AM 64.9 °F 53.1 °F 65% 30.13 in 10.0 mi NNE 5.8 mph - N/A   Clear
9:54 AM 70.0 °F 53.1 °F 55% 30.12 in 10.0 mi North 8.1 mph - N/A   Clear
10:54 AM 75.0 °F 50.0 °F 41% 30.12 in 10.0 mi NNE 10.4 mph 18.4 mph N/A   Clear
11:54 AM 77.0 °F 52.0 °F 42% 30.11 in 10.0 mi NNE 11.5 mph - N/A   Clear
12:54 PM 79.0 °F 52.0 °F 39% 30.09 in 10.0 mi ENE 11.5 mph - N/A   Clear
1:54 PM 82.9 °F 52.0 °F 34% 30.07 in 10.0 mi NE 12.7 mph - N/A   Clear
2:54 PM 86.0 °F 52.0 °F 31% 30.05 in 10.0 mi NNE 12.7 mph - N/A   Clear
3:54 PM 88.0 °F 50.0 °F 27% 30.03 in 10.0 mi NNE 11.5 mph - N/A   Clear
4:54 PM 87.1 °F 50.0 °F 28% 30.01 in 10.0 mi ENE 11.5 mph - N/A   Clear
5:54 PM 86.0 °F 50.0 °F 29% 29.99 in 10.0 mi NE 11.5 mph - N/A   Clear
6:54 PM 84.0 °F 48.9 °F 29% 29.97 in 10.0 mi ENE 12.7 mph - N/A   Clear
7:54 PM 81.0 °F 50.0 °F 34% 29.97 in 10.0 mi NE 8.1 mph - N/A   Clear
8:54 PM 77.0 °F 52.0 °F 42% 29.98 in 10.0 mi NE 6.9 mph - N/A   Clear
9:54 PM 73.0 °F 53.1 °F 49% 29.99 in 10.0 mi NE 5.8 mph - N/A   Clear
10:54 PM 71.1 °F 54.0 °F 55% 29.99 in 10.0 mi NNE 3.5 mph - N/A   Clear
11:54 PM 66.0 °F 54.0 °F 65% 29.99 in 10.0 mi North 3.5 mph - N/A   Clear